Location: Ferintosh
(52.7647°N, 112.9692°W)
Time: 20:52:55
(UTC+00:00)

A-11 Canister half - Pass Details

Date: 22 May 2024
Orbit: 1524 x 1683 km, 47.3° (Epoch: 19 June)

Event Time Altitude Azimuth Distance (km) Brightness Sun altitude
Rises 11:10:48 0° 286° (WNW) 4,798 11.2 -2.4°
Reaches altitude 10° 11:14:20 10° 276° (W) 3,834 10.7 -2.0°
Maximum altitude 11:22:22 30° 220° (SW) 2,620 9.7 -1.0°
Drops below altitude 10° 11:30:36 10° 165° (SSE) 3,916 10.9 0.0°
Sets 11:34:16 0° 155° (SSE) 4,914 11.5 0.5°
